This demonstration page uses our WeatherBlox Daily Observations layout. Learn more.

Left ArrowRight Arrow

Hourly Observations for October 12, 2022

Temp ( °F °C ) Dew Point ( °F °C ) Humidity (%) Winds ( mph kmh ) Pressure ( in mb ) Visibility ( mi km ) Precip ( " mm )
12:53 am 00:53 Clear 65 18.3 41 5 41 41 N 5 7 29.97 1015 10 16 0.00 0.00
1:53 am 01:53 Clear 60 15.6 41 5 49 49 Calm 29.98 1015 10 16 0.00 0.00
2:53 am 02:53 Clear 60 15.6 42 5.6 51 51 Calm 29.98 1015 10 16 0.00 0.00
3:53 am 03:53 Clear 59 15 41 5 51 51 Calm 29.98 1015 10 16 0.00 0.00
4:53 am 04:53 Clear 56 13.3 41 5 57 57 Calm 30.00 1016 10 16 0.00 0.00
5:53 am 05:53 Clear 54 12.2 41 5 61 61 Calm 30.02 1017 10 16 0.00 0.00
6:53 am 06:53 Clear 53 11.7 40 4.4 61 61 undefined N/A 30.03 1017 10 16 0.00 0.00
7:53 am 07:53 Sunny 54 12.2 42 5.6 64 64 Calm 30.04 1017 10 16 0.00 0.00
8:53 am 08:53 Sunny 62 16.7 42 5.6 48 48 Calm 30.05 1018 10 16 0.00 0.00
9:53 am 09:53 Sunny 72 22.2 44 6.7 37 37 Calm 30.05 1018 10 16 0.00 0.00
10:53 am 10:53 Sunny 82 27.8 42 5.6 24 24 VRB 3 6 30.04 1017 10 16 0.00 0.00
11:53 am 11:53 Sunny 89 31.7 39 3.9 17 17 WNW 5 7 30.01 1016 10 16 0.00 0.00
12:53 pm 12:53 Sunny 93 33.9 33 0.6 12 12 VRB 3 6 29.99 1016 10 16 0.00 0.00
1:53 pm 13:53 Sunny 95 35 32 0 11 11 WNW 5 7 29.97 1015 10 16 0.00 0.00
2:53 pm 14:53 Sunny 98 36.7 32 0 10 10 NW 7 11 29.95 1014 10 16 0.00 0.00
3:53 pm 15:53 Sunny 99 37.2 30 -1.1 9 9 N 6 9 29.93 1014 10 16 0.00 0.00
4:53 pm 16:53 Sunny 99 37.2 31 -0.6 9 9 NW 3 6 29.93 1013 10 16 0.00 0.00
5:53 pm 17:53 Sunny 97 36.1 34 1.1 11 11 Calm 29.92 1013 10 16 0.00 0.00
6:53 pm 18:53 Clear 85 29.4 35 1.7 17 17 W 3 6 29.93 1014 10 16 0.00 0.00
7:53 pm 19:53 Clear 79 26.1 37 2.8 22 22 NW 5 7 29.94 1014 10 16 0.00 0.00
8:53 pm 20:53 Clear 75 23.9 40 4.4 28 28 NNW 5 7 29.95 1014 10 16 0.00 0.00
9:53 pm 21:53 Clear 70 21.1 38 3.3 31 31 Calm 29.97 1015 10 16 0.00 0.00
10:53 pm 22:53 Clear 67 19.4 39 3.9 36 36 NNE 3 6 29.99 1016 10 16 0.00 0.00
11:53 pm 23:53 Clear 66 18.9 41 5 40 40 Calm 30.00 1016 10 16 0.00 0.00

Powered by AerisWeather